This is the latest recevied weather packets stored in our database for station/object OE5RPP. If no packets are shown the sender has not sent any weather packets the latest 10 day(s).
| Time | Temp. | Humidity | Pressure | Rain* | Wind** | Luminosity | Snow |
|---|---|---|---|---|---|---|---|
| 1777720007 | 23.33° C | 18% | 1024.9 hPa | 0 mm | - | - | - |
| 1777719407 | 22.22° C | 18% | 1024.9 hPa | 0 mm | - | - | - |
| 1777718807 | 21.67° C | 20% | 1024.9 hPa | 0 mm | - | - | - |
| 1777718206 | 21.67° C | 20% | 1024.9 hPa | 0 mm | - | - | - |
| 1777717606 | 21.67° C | 18% | 1024.9 hPa | 0 mm | - | - | - |
| 1777716869 | 21.11° C | 20% | 1024.9 hPa | 0 mm | - | - | - |
| 1777716270 | 20° C | 20% | 1024.9 hPa | 0 mm | - | - | - |
| 1777715670 | 20° C | 20% | 1025.9 hPa | 0 mm | - | - | - |
| 1777715069 | 19.44° C | 21% | 1025.9 hPa | 0 mm | - | - | - |
| 1777714469 | 18.89° C | 21% | 1025.9 hPa | 0 mm | - | - | - |
| 1777713870 | 18.33° C | 21% | 1025.9 hPa | 0 mm | - | - | - |
| 1777713270 | 18.33° C | 21% | 1025.9 hPa | 0 mm | - | - | - |
| 1777712670 | 18.33° C | 21% | 1025.9 hPa | 0 mm | - | - | - |
| 1777712069 | 17.22° C | 21% | 1025.9 hPa | 0 mm | - | - | - |
| 1777711470 | 17.22° C | 21% | 1025.9 hPa | 0 mm | - | - | - |
| 1777710870 | 16.11° C | 22% | 1025.9 hPa | 0 mm | - | - | - |
| 1777710270 | 15.56° C | 22% | 1025.9 hPa | 0 mm | - | - | - |
| 1777709669 | 15° C | 26% | 1025.9 hPa | 0 mm | - | - | - |
| 1777709069 | 14.44° C | 26% | 1025.9 hPa | 0 mm | - | - | - |
| 1777708470 | 13.89° C | 23% | 1025.9 hPa | 0 mm | - | - | - |
| 1777707870 | 13.89° C | 30% | 1025.9 hPa | 0 mm | - | - | - |
| 1777707270 | 13.33° C | 34% | 1025.9 hPa | 0 mm | - | - | - |
| 1777706669 | 12.78° C | 36% | 1026.9 hPa | 0 mm | - | - | - |
| 1777706070 | 11.67° C | 42% | 1025.9 hPa | 0 mm | - | - | - |
| 1777705470 | 11.11° C | 49% | 1025.9 hPa | 0 mm | - | - | - |
* Rain latest hour (hover to see other rain measurements)
** Current wind speed in m/s (hover to see current wind gust speed)